Home   Weather   Passo Fundo   Past weeks
Flag for Brazil

Past Weather in Passo Fundo, Rio Grande do Sul, Brazil — Yesterday and Last 2 Weeks

Now
75 °F

Passing clouds.


Feels Like: 75 °F
Forecast: 68 / 55 °F
Wind: 3 mph from Northeast

Location: Porto Alegre Aero-Porto

Current Time: Apr 2, 2020 at 2:59:49 am

Latest Report: Apr 2, 2020 at 2:00 am


Visibility: N/A

Pressure: 29.77 "Hg (27.53 "Hg at 680m altitude)

Humidity: 89%

Dew Point: 72 °F

Location of Passo FundoLocation

Past Weather in Passo Fundo — Graph

°F

Passo Fundo Temperature Yesterday

Maximum temperature yesterday: 84 °F (at 12:00 pm)
Minimum temperature yesterday: 72 °F (at 5:00 am)
Average temperature yesterday: 77 °F

High & Low Weather Summary for the Past Weeks

 TemperatureHumidityPressure
High91 °F (Mar 30, 3:00 pm)100% (Mar 18, 6:00 am)30.12 "Hg (Mar 18, 6:00 am)
Low63 °F (Mar 21, 6:28 am)27% (Mar 25, 4:00 pm)29.68 "Hg (Mar 19, 4:00 pm)
Average76 °F75%29.94 "Hg
* Reported Mar 18 1:00 am — Apr 2 1:00 am, Passo Fundo. Weather by CustomWeather, © 2020

Note: Actual official high and low records may vary slightly from our data, if they occured in-between our weather recording intervals... More about our weather records

Passo Fundo Weather History for the Previous 24 Hours

Scroll right to see more
 ConditionsComfort  
Time TempWeatherWind HumidityBarometerVisibility
1:00 am
Thu, Apr 2
75 °FPassing clouds.5 mph89%29.80 "HgN/A
12:00 am75 °FClear.7 mph89%29.83 "Hg10 mi
11:00 pm
Wed, Apr 1
75 °FClear.8 mph89%29.86 "Hg10 mi
10:00 pm75 °FClear.8 mph89%29.86 "Hg10 mi
9:00 pm75 °FClear.8 mph89%29.89 "Hg10 mi
8:00 pm77 °FClear.10 mph79%29.89 "Hg10 mi
7:00 pm77 °FClear.12 mph79%29.86 "Hg10 mi
6:00 pm79 °FSunny.13 mph74%29.89 "Hg10 mi
5:00 pm81 °FPassing clouds.16 mph70%29.89 "HgN/A
4:00 pm82 °FScattered clouds.15 mph66%29.89 "HgN/A
3:00 pm82 °FScattered clouds.17 mph66%29.89 "HgN/A
2:00 pm84 °FPartly sunny.16 mph62%29.92 "HgN/A
1:00 pm84 °FPartly sunny.14 mph62%29.95 "HgN/A
12:00 pm84 °FScattered clouds.15 mph62%29.95 "HgN/A
11:00 am82 °FPartly sunny.16 mph66%29.98 "HgN/A
10:00 am81 °FPartly sunny.15 mph70%29.98 "HgN/A
9:00 am77 °FScattered clouds.15 mph79%29.98 "HgN/A
8:00 am73 °FSunny.15 mph83%29.98 "Hg10 mi
7:00 am72 °FSunny.14 mph88%29.98 "Hg10 mi
6:00 am72 °FClear.14 mph88%29.98 "Hg10 mi
5:00 am72 °FClear.14 mph88%29.98 "Hg10 mi
4:00 am73 °FClear.16 mph83%29.98 "Hg10 mi
3:00 am73 °FClear.13 mph83%29.98 "Hg10 mi
2:00 am73 °FClear.16 mph83%29.98 "Hg10 mi
Weather by CustomWeather, © 2020

See weather overview

Advertising